User: anonymous   Login
Location: Newark
(15.4608°S, 41.1635°W)
Time: 13:15:44
(UTC+00:00)
Language:

DOVE 4 - Orbit

View from above orbital plane
View from above orbital plane
View from above satellite
View from above satellite

Ground track
Ground track

The orbit data is extracted from the following two-line orbital elements,

1 39430U 13066Q   20049.13327427  .00000095  00000-0  26335-4 0  9996
2 39430  97.7788 355.0170 0150189 203.2938 156.1409 14.59348575332251
Epoch (UTC): 18 February 2020 03:11:54
Eccentricity: 0.0150189
inclination: 97.7788°
perigee height: 589 km
apogee height: 801 km
right ascension of ascending node: 355.0170°
argument of perigee: 203.2938°
revolutions per day: 14.59348575
mean anomaly at epoch: 156.1409°
orbit number at epoch: 33225

The dashed part of the orbit path shows where the satellite is in the earth's shadow,  

DLR